Regional Weather Roundup
Issued by NWS Wakefield, VA

Home | Current Version | Previous Version | Graphics & Text | Print | Product List | Glossary On
Versions: 1 2 3 4 5 6 7 8 9 10 11 12 13 14 15 16 17 18 19 20 21 22 23 24 25 26 27 28 29 30 31 32 33 34 35 36 37 38 39 40 41 42 43 44 45 46 47 48 49 50
000
ASUS41 KAKQ 290815
RWRAKQ

REGIONAL WEATHER ROUNDUP
NATIONAL WEATHER SERVICE WAKEFIELD VA
400 AM EDT MON MAY 29 2017

Note: "fair" indicates few or no clouds below 12,000 feet with no
significant weather and/or obstructions to visibility. * = Denotes
station may not report precipitation (e.g., rain,snow,etc.),
thunder or fog.

VAZ042-051-052>054-056-290900-
NORTHERN VIRGINIA

CITY           SKY/WX    TMP DP  RH WIND       PRES   REMARKS
WASH NATIONAL  CLOUDY    65  64  97 NE3       29.81F FOG
DULLES         DRIZZLE   64  63  96 E5        29.80F FOG
FORT BELVOIR   CLOUDY    64  63  94 CALM      29.80F FOG
QUANTICO       CLOUDY    66  66 100 N3        29.81S FOG
FREDERICKSBRG* CLOUDY    67  67 100 CALM      29.80F FOG
STAFFORD*      FOG       65  65 100 CALM      29.85R VSB 1/2
WARRENTON      FOG       66  64  91 CALM      29.80F VSB 1/4
CULPEPER*      FOG       66  66 100 CALM      29.82F VSB 1/2
MANASSAS*      FOG       65  65 100 E3        29.81S VSB 1/2
LEESBURG*      CLOUDY    64  64 100 SE3       29.82F FOG
WINCHESTER     FOG       61  61 100 CALM      29.80S VSB 1
FRONT ROYAL*   CLOUDY    63  63 100 S3        29.80S
LURAY*         CLOUDY    64  64 100 SW3       29.81F
$$

VAZ048-049-060>072-079>083-290900-
CENTRAL AND SOUTH CENTRAL VIRGINIA

CITY           SKY/WX    TMP DP  RH WIND       PRES   REMARKS
RICHMOND       PTCLDY    69  67  93 NW6       29.80S FOG
CHESTERFIELD*  NOT AVBL
PETERSBURG*    CLOUDY    66  65  97 CALM      29.82S FOG
HANOVER        CLOUDY    67  65  93 W3        29.82R FOG
TAPPAHANNOCK*  CLOUDY    68  68 100 SW3       29.81S
QUINTON*       FOG       67  67 100 NW5       29.81R VSB 1
CHARLOTTSVILLE FOG       66  65  96 CALM      29.81F VSB 3/4
GORDONSVILLE*  CLOUDY    65  65 100 SW3       29.81F FOG
ORANGE*        CLOUDY    64  64 100 CALM      29.82S FOG
LOUISA*        CLOUDY    70  68  94 CALM      29.81F FOG
BUMPASS*       CLOUDY    66  66 100 W3        29.82S VSB 1/4
FARMVILLE*     FOG       66  64  91 CALM      29.82S VSB 1/4
CREWE*         CLOUDY    64  60  86 NW5       29.83S VSB 1/4
FORT PICKETT*  CLOUDY    63  60  87 NW5       29.82S VSB 1/4
CHASE CITY*    CLOUDY    65  64  95 CALM      29.84S VSB 1/4
CLARKSVILLE*   CLOUDY    64  64 100 CALM      29.84S VSB 1/4
SOUTH HILL*    CLOUDY    64  64 100 CALM      29.88S VSB 1/4
LAWRENCEVILLE* CLOUDY    65  64  97 CALM      29.82S VSB 1/4
EMPORIA*       FOG       64  64 100 CALM      29.83R VSB 1/2
$$

VAZ088>098-290900-
SOUTHEAST VIRGINIA

CITY           SKY/WX    TMP DP  RH WIND       PRES   REMARKS
NORFOLK        PTCLDY    66  63  90 S5        29.78S
VIRGINIA BEACH PTCLDY    65  63  93 SW5       29.77F
NORFOLK NAVAL  PTCLDY    67  64  90 SW3       29.80S
WEST POINT*    CLOUDY    67  66  97 CALM      29.82R
SALUDA*        CLOUDY    67  67 100 CALM      29.79R
NEWPORT NEWS   CLOUDY    66  65  96 W5        29.79S
LANGLEY AFB    PTCLDY    64  64 100 CALM      29.78S
FORT EUSTIS    PTCLDY    67  66  94 W3        29.77S
WILLIAMSBURG*  CLEAR     68  68 100 CALM      29.80S
HR EXEC AP*    FAIR      61  57  88 CALM      29.78S
FRANKLIN*      FOG       65  64  99 CALM      29.81S VSB 1
US460-WAKEFLD  FOG       66  66 100 CALM      29.80S VSB 1/4
$$

VAZ020-022-025-037-045-290900-
WEST CENTRAL AND SOUTHWEST VIRGINIA

CITY           SKY/WX    TMP DP  RH WIND       PRES   REMARKS
STAUNTON*      FOG       62  62  99 CALM      29.84F VSB 1/4
WAYNESBORO*    CLOUDY    60  60 100 CALM      29.84F
HOT SPRINGS VA CLOUDY    59  54  82 W16       29.94S
LYNCHBURG      CLOUDY    64  64 100 CALM      29.86S FOG
DANVILLE       CLEAR     64  62  93 W6        29.87R
SOUTH BOSTON*  CLOUDY    65  64  95 CALM      29.84S VSB 1/4
MARTINSVILLE   CLEAR     57  56  97 CALM      29.90S
ROANOKE        CLEAR     67  60  78 W9        29.89S
BLACKSBURG     CLEAR     64  58  81 CALM      29.94S
DUBLIN*        CLEAR     63  56  79 W6        29.93S
MARION*        CLOUDY    64  61  90 CALM      29.98F
HILLSVILLE*    CLEAR     61  56  82 CALM      29.94F
RICHLANDS*     CLOUDY    63  60  90 W8        29.97F
WISE*          MOCLDY    61  61 100 CALM      30.00R
ABINGDON*      CLOUDY    65  65  97 W5        29.96S
$$

MDZ021>025-VAZ099-100-290900-
SOUTHERN MARYLAND AND THE DELMARVA PENINSULA

CITY           SKY/WX    TMP DP  RH WIND       PRES   REMARKS
PATUXENT RIVER CLOUDY    64  64 100 NW9       29.79R
BAY BRIDGE APT CLOUDY    61  61 100 N3        29.81R
LEONARDTOWN    CLOUDY    63  61  94 CALM      29.82R
DOVER          CLOUDY    61  61 100 N7        29.78R
GEORGETOWN     CLOUDY    61  60  97 NE6       29.78R FOG
EASTON         CLOUDY    63  60  92 CALM      29.84R
CAMBRIDGE      CLOUDY    63  61  94 N7        29.80R
SALISBURY      CLOUDY    62  62 100 W3        29.78R
OCEAN CITY     CLOUDY    61  60  97 NW5       29.78R FOG
WALLOPS ISLAND CLOUDY    64  64 100 NW3       29.76F FOG
ACCOMACK*      CLOUDY    67  30  25 NW8       29.78R HAZE
$$

NCZ012>017-030>032-290900-
NORTH CENTRAL AND EASTERN NORTH CAROLINA

CITY           SKY/WX    TMP DP  RH WIND       PRES   REMARKS
ROANOKE RAPIDS FOG       66  66 100 CALM      29.82S VSB 3/4
RALEIGH        PTCLDY    69  63  81 CALM      29.86S
ELIZABETH CITY FOG       71  71 100 CALM      29.79S VSB 1/2
AHOSKIE*       NOT AVBL
EDENTON*       PTCLDY    71  69  94 CALM      29.80S FOG
CURRITUCK*     FOG      N/A N/A N/A CALM      29.80F VSB 1/4
KILL DEVIL HLS FOG       67  67 100 CALM      29.78S VSB 1/4
MANTEO         MOCLDY    69  68  98 CALM      29.79F
CAPE HATTERAS  CLEAR     76  72  87 VRB7      29.80R
TARBORO*       NOT AVBL
GOLDSBORO      CLEAR     72  72 100 SW7       29.83R
WASHINGTON     CLEAR     72  69  91 W5        29.82R
GREENVILLE     CLEAR     72  70  94 CALM      29.85R
NEW BERN       CLEAR     72  71  97 W7        29.84R
WILMINGTON     CLEAR     70  68  93 SW7       29.86S
$$

VAZ048-290900-
ELSEWHERE

CITY           SKY/WX    TMP DP  RH WIND       PRES   REMARKS
HARRISBURG PA  DRIZZLE   60  60 100 E6        29.80F FOG
BALTIMORE      CLOUDY    62  62 100 E3        29.81R
ANNAPOLIS      CLOUDY    65  63  93 N3        29.80R
ANDREWS AFB    CLOUDY    63  63 100 NE3       29.80S FOG
PHILADELPHIA   CLOUDY    59  57  93 NE9       29.83R
HENDERSON NC   PTCLDY    63  60  92 CALM      29.85S
GREENSBORO     CLEAR     66  61  84 NW3       29.88S
ROCKY MOUNT    CLEAR     71  68  90 W3        29.83R
$$

VAZ100-290900-
MARINE

STATION/POSITION TIME  TEMP    WIND        PRES    WAVE   SWELL
                       AIR SEA DIR/SP/G            HT/PER HT/PER
                 (UTC) (F)     (DEG/KT/KT) (MB)    (FT/S) (FT/S)
CAPE MAY NJ      0736   60 63   60/  4/  7   N/A
LEWES DE         0736   61 64   60/  9/ 10   N/A
15NM E FENWICK I 0750   60 60  340/  8/ 10 1007.7R   4/ 7   3/ 7
WACHAPREAGUE VA  0736   66 70  260/  1/  2   N/A
THOMAS POINT MD  0800   63 65  360/  6/  7   N/A
GOOSES REEF MD   0800   64 63   10/  6/  8 1009.8    0
COVE POINT MD    0736   63     360/  6/  8   N/A
SOLOMONS ISLAND  0736   64 68  340/  6/  8   N/A
BISHOPS HEAD MD  0736   64 71  340/  4/  7   N/A
PINEY POINT MD   0748          350/  8/  8   N/A
POTOMAC MD       0800   65 69  330/  6/  8 1007.8    0
CAMBRIDGE MD     0736   62 70                N/A
LEWISETTA VA     0736   65 70  360/  4/  5   N/A
RAPPAHANNOCK LGT 0748          310/  8/  9   N/A
STINGRAY PT      0750   67     330/  6/  8 1008.4R
YORK RVR RNG VA  0736   68     310/  3/  4   N/A
YORKTOWN VA      0736   67 70  180/  1/  3   N/A
JAMESTOWN VA     0800   68 73  250/  6/  8   N/A     0
DOMINION TERM VA 0736   69     250/  5/  5   N/A
KIPTOPEKE VA     0748      68  310/  5/  8   N/A
CHES BAY BRIDGE  0736   68 67  280/  3/  4   N/A
CAPE HENRY VA    0736   67     240/  2/  4   N/A
WILLOUBY STN VA  0736   69     240/  5/  5   N/A
S CRANEY ISL VA  0736   67     240/  2/  4   N/A
CAPE HENRY BUOY  0742      64                N/A     2/ 7
1ST LANDING BUOY 0800   68 67              1008.5    1/ 4
CAPE CHARLES BUO 0751      65                N/A     2/ 8
64NM E OF VA BCH 0750   63 64  280/  8/  8 1008.8F   4/ 6   3/ 6
DUCK PIER NC     0736   67 68   CALM  /  2   N/A
44100 DUCK FRF   0735      66                N/A     3/ 6
44056 DUCK FRF   0730      68                N/A     2/ 8
OREGON INLET NC  0748           60/  3/  3   N/A
HATTERAS NC      0736   75 75  250/  7/  9   N/A
DIAMOND SHLS NC  0750   76 76  260/ 17/ 19 1009.2R   5/ 6
CAPE LOOKOUT NC  0800   74     250/ 12/ 15 1009.8R
$$



USA.gov is the U.S. government's official web portal to all federal, state and local government web resources and services.